Location: Praha
(50.0830°N, 14.4670°E)
Time: 05:30:00
(UTC+01:00)

ISS - Pass Details

Date: 29 January 2020
Orbit: 415 x 423 km, 51.6° (Epoch: 27 February)

Event Time Altitude Azimuth Distance (km) Brightness Sun altitude
Rises 17:36:36 0° 258° (WSW) 2,377 2.4 -7.7°
Reaches altitude 10° 17:38:42 10° 260° (W) 1,513 0.7 -8.0°
Maximum altitude 17:42:06 79° 347° (NNW) 436 -3.7 -8.5°
Enters shadow 17:45:07 13° 75° (ENE) 1,355 -1.9 -9.0°
